Location: Rochester
(43.1610°N, 77.6109°W)
Time: 08:55:09
(UTC-05:00)

CAS-4A - Pass Details

Date: 23 October 2021
Orbit: 529 x 539 km, 43.0° (Epoch: 04 December)

Event Time Altitude Azimuth Distance (km) Brightness Sun altitude
Rises 19:23:07 0° 280° (W) 2,689 ? -13.2°
Reaches altitude 10° 19:25:22 10° 277° (W) 1,796 ? -13.6°
Maximum altitude 19:29:26 61° 197° (SSW) 611 ? -14.3°
Enters shadow 19:32:01 21° 122° (ESE) 1,238 ? -14.8°
